Weather History for Camarillo, CA

Change the Weather History Date:

Tuesday, January 22, 2013

  Actual Average Record
Temperature  
Mean Temperature 66 °F 54 °F  
Max Temperature 82 °F 66 °F 85 °F (1968)
Min Temperature 49 °F 43 °F 28 °F (1966)
Degree Days  
Heating Degree Days 0 11  
Month to date heating degree days 226 242  
Since 1 July heating degree days 772 923  
Cooling Degree Days 1 0  
Month to date cooling degree days 20 0  
Year to date cooling degree days 20 0  
Growing Degree Days 15 (Base 50)    
Moisture  
Dew Point 20 °F    
Average Humidity 24    
Maximum Humidity 43    
Minimum Humidity 5    
Precipitation  
Precipitation 0.00 in 0.11 in 1.06 in (1997)
Month to date precipitation 0.01 2.87  
Year to date precipitation 0.01 2.87  
Since 1 July precipitation 2.72 7.11  
Sea Level Pressure  
Sea Level Pressure 30.07 in    
Wind  
Wind Speed 7 mph (ENE)    
Max Wind Speed 18 mph    
Max Gust Speed 22 mph    
Visibility 10 miles    
Events      
T = Trace of Precipitation, MM = Missing Value Source: NWS Daily Summary

Daily Weather History Graph

Daily Weather History Graph

Search for Another Location

Airport:

Trip Planner

Search our weather history database for the weather conditions in past years. The results will help you decide how hot, cold, wet, or windy it might be!

Date:

Astronomy

Jan. 22, 2013 Rise Set
Actual Time 6:59 AM PST 5:17 PM PST
Civil Twilight 6:32 AM PST 5:43 PM PST
Nautical Twilight 6:02 AM PST 6:14 PM PST
Astronomical Twilight 5:32 AM PST 6:44 PM PST
Moon 1:45 PM PST (1/22) 3:23 AM PST (1/22)
Length of Visible Light 11h 11m
Length of Day
10h 17m
Waxing Gibbous, 83% of the Moon is Illuminated
Jan 22
Waxing Gibbous
Jan 26
Full
Feb 3
Last Quarter
Feb 9
New
Feb 17
First Quarter

Hourly Weather History & Observations

Time (PST) Temp. Dew Point Humidity Pressure Visibility Wind Dir Wind Speed Gust Speed Precip Events Conditions
12:55 AM 57.0 °F 10.0 °F 15% 30.09 in 10.0 mi ENE 8.1 mph - N/A   Clear
1:55 AM 59.0 °F 9.0 °F 14% 30.08 in 10.0 mi NE 11.5 mph - N/A   Clear
2:55 AM 57.9 °F 9.0 °F 14% 30.08 in 10.0 mi NE 5.8 mph - N/A   Clear
3:55 AM 48.9 °F 15.1 °F 26% 30.07 in 10.0 mi NNE 4.6 mph - N/A   Clear
4:55 AM 55.9 °F 9.0 °F 15% 30.07 in 10.0 mi ENE 9.2 mph - N/A   Clear
5:55 AM 54.0 °F 10.0 °F 17% 30.09 in 10.0 mi ENE 4.6 mph - N/A   Clear
6:55 AM 55.0 °F 10.9 °F 17% 30.09 in 10.0 mi ENE 10.4 mph - N/A   Clear
7:55 AM 60.1 °F 12.9 °F 16% 30.10 in 10.0 mi NE 6.9 mph - N/A   Clear
8:55 AM 66.9 °F 17.1 °F 15% 30.10 in 10.0 mi ENE 6.9 mph - N/A   Clear
9:55 AM 75.0 °F 12.0 °F 9% 30.11 in 10.0 mi East 10.4 mph - N/A   Clear
10:55 AM 79.0 °F 8.1 °F 7% 30.10 in 10.0 mi ENE 13.8 mph - N/A   Clear
11:55 AM 82.0 °F 7.0 °F 6% 30.06 in 10.0 mi East 12.7 mph - N/A   Clear
12:55 PM 75.9 °F 30.9 °F 19% 30.05 in 10.0 mi SW 9.2 mph - N/A   Clear
1:55 PM 75.0 °F 28.9 °F 18% 30.04 in 10.0 mi SSW 10.4 mph - N/A   Clear
2:55 PM 72.0 °F 34.0 °F 25% 30.04 in 10.0 mi West 5.8 mph - N/A   Clear
3:55 PM 66.0 °F 37.0 °F 34% 30.06 in 10.0 mi West 6.9 mph - N/A   Clear
4:55 PM 64.9 °F 32.0 °F 29% 30.06 in 10.0 mi Calm Calm - N/A   Clear
5:55 PM 60.1 °F 37.9 °F 44% 30.07 in 10.0 mi East 5.8 mph - N/A   Clear
6:55 PM 57.0 °F 35.1 °F 44% 30.08 in 10.0 mi ENE 5.8 mph - N/A   Clear
7:55 PM 57.9 °F 28.0 °F 32% 30.06 in 10.0 mi ENE 6.9 mph - N/A   Clear
8:55 PM 57.9 °F 25.0 °F 28% 30.08 in 10.0 mi Calm Calm - N/A   Clear
9:55 PM 60.1 °F 23.0 °F 24% 30.07 in 10.0 mi East 6.9 mph - N/A   Clear
10:55 PM 61.0 °F 19.0 °F 20% 30.08 in 10.0 mi ENE 6.9 mph - N/A   Clear
11:55 PM 62.1 °F 18.0 °F 18% 30.07 in 10.0 mi ENE 4.6 mph - N/A   Clear